Torna al catalogo

STARLINK-34293

AttivoComunicazioniVLEO
NORAD 64275·PAYLOAD·🇺🇸 United States

Lanciato Jun 4, 2025 da Vandenberg Space Force Base

Loading…

Prossimi Passaggi (prossime 24 ore)

TLE

AggiornatoSource: CelesTrak SupGP

Epoca: Sep 14, 2026, 21:30 UTC

1 64275C 25120V   26257.89631944 -.00004338  00000+0 -12821-3 0  2573
2 64275  53.1587 315.9145 0001320  90.2729 201.6758 15.34383583    11

Traccia STARLINK-34293 in tempo reale con AllMySat

Download on the App Store